Vancouver, WA

7:30 PM PST on December 13, 2017 (GMT -0800)
Pearson

Weather History for KVUO - January, 2012

Change the Weather History Date:

Friday, January 6, 2012

  Actual Average Record
Temperature  
Mean Temperature 35 °F 41 °F  
Max Temperature 40 °F 47 °F 58 °F (1896)
Min Temperature 29 °F 35 °F 6 °F (1982)
Degree Days  
Heating Degree Days 30    
Month to date heating degree days 129  
Since 1 July heating degree days 1860  
Cooling Degree Days 0    
Month to date cooling degree days 0  
Year to date cooling degree days 0  
Moisture  
Dew Point 35 °F    
Average Humidity 93    
Maximum Humidity 100    
Minimum Humidity 85    
Precipitation  
Precipitation 0.15 in 0.19 in 2.01 in (1912)
Month to date precipitation 0.36 1.23  
Year to date precipitation 0.36 1.23  
Snow  
Snow 0.00 in - - ()
Month to date snowfall 0.0  
Snow Depth 0.00 in    
Sea Level Pressure  
Sea Level Pressure 30.35 in    
Wind  
Wind Speed 2 mph (ESE)    
Max Wind Speed 8 mph    
Max Gust Speed 10 mph    
Visibility 4 miles    
Events Fog , Rain    
T = Trace of Precipitation, MM = Missing Value Source: NWS Daily Summary

Daily Weather History Graph

Daily Weather History Graph

Search for Another Location

Airport or City:

Trip Planner

Search our weather history database for the weather conditions in past years. The results will help you decide how hot, cold, wet, or windy it might be!

Date:

Astronomy

Jan. 06, 2012 Rise Set
Actual Time 7:50 AM PST 4:42 PM PST
Civil Twilight 7:17 AM PST 5:16 PM PST
Nautical Twilight 6:39 AM PST 5:53 PM PST
Astronomical Twilight 6:03 AM PST 6:29 PM PST
Moon 2:36 PM PST (1/6) 5:37 AM PST (1/6)
Length of Visible Light 9h 59m
Length of Day
8h 51m
Waxing Gibbous, 94% of the Moon is Illuminated
Jan 6
Waxing Gibbous
Jan 8
Full
Jan 16
Last Quarter
Jan 22
New
Jan 30
First Quarter

Hourly Weather History & Observations

Time (PST) Temp. Windchill Dew Point Humidity Pressure Visibility Wind Dir Wind Speed Gust Speed Precip Events Conditions
12:53 AM 34.0 °F - 32.0 °F 92% 30.39 in 6.0 mi Calm Calm - N/A   Clear
1:29 AM 30.2 °F - 28.4 °F 93% 30.38 in 5.0 mi Calm Calm - N/A   Scattered Clouds
1:36 AM 33.8 °F - 30.2 °F 87% 30.37 in 5.0 mi Calm Calm - N/A   Mostly Cloudy
1:43 AM 30.2 °F - 30.2 °F 100% 30.37 in 1.8 mi Calm Calm - N/A   Mostly Cloudy
1:47 AM 30.2 °F - 30.2 °F 100% 30.37 in 0.8 mi Calm Calm - N/A   Overcast
1:53 AM 32.0 °F - 30.9 °F 96% 30.38 in 0.2 mi Calm Calm - N/A Fog Fog
2:01 AM 33.8 °F 30.8 °F 32.0 °F 93% 30.37 in 0.2 mi WNW 3.5 mph - N/A Fog Fog
2:53 AM 35.1 °F - 34.0 °F 96% 30.38 in 0.2 mi Calm Calm - 0.01 in Fog Fog
3:15 AM 35.6 °F - 33.8 °F 93% 30.37 in 0.5 mi Calm Calm - N/A Fog Fog
3:34 AM 35.6 °F - 33.8 °F 93% 30.37 in 1.5 mi Calm Calm - N/A   Overcast
3:42 AM 35.6 °F - 33.8 °F 93% 30.37 in 3.0 mi Calm Calm - N/A   Overcast
4:51 AM 33.8 °F - 33.8 °F 100% 30.35 in 1.5 mi Calm Calm - N/A   Overcast
4:53 AM 34.0 °F - 33.1 °F 96% 30.36 in 1.2 mi Calm Calm - N/A   Overcast
5:02 AM 35.6 °F - 33.8 °F 93% 30.35 in 0.8 mi Calm Calm - N/A   Overcast
5:20 AM 33.8 °F - 33.8 °F 100% 30.35 in 0.5 mi Calm Calm - N/A Fog Fog
5:42 AM 33.8 °F - 33.8 °F 100% 30.35 in 0.2 mi Calm Calm - N/A Fog Fog
5:53 AM 34.0 °F - 33.1 °F 96% 30.35 in 0.2 mi Calm Calm - N/A Fog Fog
6:41 AM 35.6 °F - 33.8 °F 93% 30.35 in 0.5 mi Calm Calm - N/A Fog Fog
6:53 AM 35.1 °F - 34.0 °F 96% 30.35 in 0.5 mi Calm Calm - N/A Fog Fog
7:49 AM 35.6 °F - 35.6 °F 100% 30.33 in 1.2 mi Calm Calm - N/A   Overcast
7:53 AM 36.0 °F - 35.1 °F 97% 30.34 in 1.5 mi Calm Calm - N/A   Overcast
7:58 AM 35.6 °F - 33.8 °F 93% 30.34 in 3.0 mi Calm Calm - N/A   Overcast
8:53 AM 36.0 °F - 35.1 °F 97% 30.35 in 2.5 mi Calm Calm - N/A   Overcast
9:22 AM 35.6 °F - 35.6 °F 100% 30.35 in 1.5 mi Calm Calm - N/A   Overcast
9:31 AM 35.6 °F - 35.6 °F 100% 30.35 in 1.0 mi Calm Calm - N/A   Overcast
9:45 AM 35.6 °F - 35.6 °F 100% 30.35 in 0.8 mi Calm Calm - N/A   Overcast
9:53 AM 36.0 °F - 35.1 °F 97% 30.36 in 1.0 mi Calm Calm - N/A   Overcast
10:11 AM 35.6 °F - 35.6 °F 100% 30.36 in 0.8 mi Calm Calm - N/A   Overcast
10:38 AM 35.6 °F - 35.6 °F 100% 30.35 in 1.2 mi Calm Calm - N/A   Overcast
10:48 AM 35.6 °F - 35.6 °F 100% 30.35 in 2.0 mi Calm Calm - N/A   Overcast
10:49 AM 36.0 °F - 35.1 °F 97% 30.35 in 2.0 mi Calm Calm - N/A   Overcast
11:05 AM 35.6 °F - 35.6 °F 100% 30.34 in 3.0 mi Calm Calm - N/A   Overcast
11:53 AM 37.0 °F - 35.1 °F 93% 30.33 in 4.0 mi Calm Calm - N/A   Overcast
1:24 PM 39.2 °F 37.0 °F 35.6 °F 87% 30.31 in 4.0 mi ESE 3.5 mph - N/A   Overcast
1:53 PM 39.0 °F 36.8 °F 36.0 °F 89% 30.32 in 3.0 mi ESE 3.5 mph - N/A   Overcast
2:26 PM 39.2 °F 35.9 °F 37.4 °F 93% 30.33 in 2.5 mi ESE 4.6 mph - 0.01 in Rain Light Rain
2:36 PM 39.2 °F 35.0 °F 37.4 °F 93% 30.33 in 3.0 mi East 5.8 mph - 0.02 in Rain Light Rain
2:53 PM 39.0 °F 34.0 °F 37.0 °F 93% 30.33 in 4.0 mi ESE 6.9 mph - 0.02 in Rain Light Rain
3:53 PM 39.9 °F 36.7 °F 37.0 °F 89% 30.33 in 4.0 mi ESE 4.6 mph - 0.02 in Rain Light Rain
4:08 PM 39.2 °F 35.0 °F 37.4 °F 93% 30.33 in 6.0 mi SE 5.8 mph - 0.00 in Rain Light Rain
4:53 PM 39.9 °F 37.8 °F 37.0 °F 89% 30.34 in 10.0 mi SE 3.5 mph - 0.01 in Rain Light Rain
5:00 PM 39.2 °F 35.9 °F 37.4 °F 93% 30.34 in 10.0 mi SE 4.6 mph - 0.00 in Rain Light Rain
5:53 PM 39.0 °F 35.7 °F 37.0 °F 93% 30.34 in 7.0 mi SE 4.6 mph - 0.02 in Rain Light Rain
6:41 PM 39.2 °F 35.9 °F 35.6 °F 87% 30.34 in 6.0 mi SE 4.6 mph - 0.03 in Rain Light Rain
6:53 PM 39.0 °F 34.8 °F 36.0 °F 89% 30.35 in 5.0 mi ESE 5.8 mph - 0.04 in Rain Light Rain
7:11 PM 39.2 °F 35.9 °F 35.6 °F 87% 30.34 in 5.0 mi SE 4.6 mph - 0.00 in Rain Light Rain
7:53 PM 39.0 °F 34.8 °F 36.0 °F 89% 30.35 in 5.0 mi ESE 5.8 mph - 0.01 in Rain Light Rain
8:00 PM 39.2 °F 37.0 °F 35.6 °F 87% 30.35 in 6.0 mi East 3.5 mph - 0.01 in Rain Light Rain
8:53 PM 39.0 °F 34.0 °F 36.0 °F 89% 30.35 in 3.0 mi ESE 6.9 mph - 0.01 in   Overcast
9:53 PM 39.0 °F 35.7 °F 37.0 °F 93% 30.35 in 7.0 mi East 4.6 mph - 0.01 in   Overcast
10:28 PM 39.2 °F 35.9 °F 37.4 °F 93% 30.36 in 10.0 mi ESE 4.6 mph - N/A   Overcast
10:43 PM 39.2 °F 35.9 °F 37.4 °F 93% 30.36 in 10.0 mi East 4.6 mph - N/A   Overcast
10:53 PM 39.0 °F 35.7 °F 37.0 °F 93% 30.37 in 10.0 mi ESE 4.6 mph - N/A   Overcast
11:30 PM 39.2 °F 37.0 °F 37.4 °F 93% 30.37 in 10.0 mi ESE 3.5 mph - N/A   Overcast
11:53 PM 39.9 °F 37.8 °F 37.0 °F 89% 30.38 in 10.0 mi ENE 3.5 mph - N/A   Overcast